Regional Weather Roundup
Issued by NWS

Home | Current Version | Previous Version | Graphics & Text | Print | Product List | Glossary On
Versions: 1 2 3 4 5 6 7 8 9 10 11 12 13 14 15 16 17 18 19 20 21 22 23 24 25 26 27 28 29 30 31 32 33 34 35 36 37 38 39 40 41 42 43 44 45 46 47 48 49 50
000
ASUS45 KTFX 081810
RWRMT
MONTANA REGIONAL WEATHER ROUNDUP
NATIONAL WEATHER SERVICE GREAT FALLS MT
1100 AM MST MON FEB 08 2016

NOTE: "FAIR" INDICATES FEW OR NO CLOUDS BELOW 12000 FEET WITH NO
SIGNIFICANT WEATHER AND/OR OBSTRUCTIONS TO VISIBILITY.

MTZ001>007-043-081900-
WEST OF THE DIVIDE

CITY           SKY/WX    TMP DP  RH WIND       PRES   REMARKS
KALISPELL      CLOUDY    34  28  79 E3        30.62R
MISSOULA       CLOUDY    34  27  75 CALM      30.64F
BUTTE          CLOUDY    33  23  66 CALM      30.58F
MULLAN PASS    MOSUNNY   37  28  70 SW7       30.57R WCI  32
ANACONDA         N/A     41  25  52 NW6       30.57F
DEER LODGE       N/A     37  25  60 CALM      30.59F
HAMILTON         N/A     37  25  60 N5        30.61S
LIBBY            N/A     41  27  56 CALM        N/A
PLAINS           N/A     36  27  70 CALM      30.59S
$$

MTZ008-052>055-081900-
SOUTHWEST MONTANA

CITY           SKY/WX    TMP DP  RH WIND       PRES   REMARKS
BOZEMAN        CLOUDY    31  25  78 NW6       30.56F WCI  25
DILLON         CLOUDY    32  24  72 N3        30.58F
ENNIS          SUNNY     37  23  56 S13       30.64F WCI  29
TWIN BRIDGES     N/A     30  20  66 SE5       30.51
$$

MTZ009-010-012-014-046-048-049-054-081900-
EAST SLOPES AND CENTRAL MONTANA

CITY           SKY/WX    TMP DP  RH WIND       PRES   REMARKS
CUT BANK       SUNNY     51  28  41 W30G37    30.36F
GREAT FALLS    CLOUDY    52  26  36 SW18      30.40F
MALMSTROM AFB  CLOUDY    50  27  40 SW20G26   30.41F
HELENA         CLOUDY    35  24  64 N5        30.53F
CHOTEAU          N/A     57  30  35 W24       30.40S
CONRAD           N/A     56  31  38 SW21      30.35F
$$

MTZ011-013-016-021-045-047-050-051-081900-
NORTH CENTRAL MONTANA

CITY           SKY/WX    TMP DP  RH WIND       PRES   REMARKS
HAVRE          CLOUDY    44  27  51 SW20      30.37F
LEWISTOWN      CLOUDY    46  27  47 NW6       30.40F
N BAR RANCH      N/A     48  23  37 NW18G26   30.38S
CHINOOK          N/A     34  21  60 CALM      30.37F
$$

MTZ017>020-022>027-061-062-081900-
NORTHEAST MONTANA

CITY           SKY/WX    TMP DP  RH WIND       PRES   REMARKS
GLASGOW        CLOUDY    32  17  54 NW3       30.37F
JORDAN           N/A     36  20  52 W6        30.36F WCI  31
SIDNEY         CLOUDY    32  16  51 NW14      30.37F WCI  22
WOLF POINT     CLOUDY    32  20  61 W3        30.40S
PLENTYWOOD       N/A     28  19  69 NW13G18   30.34F WCI  18
POPLAR           N/A     30  19  64 W6        30.40S WCI  24
SCOBEY           N/A     29  12  49 W3        30.31F
$$

MTZ028>42-056>058-081900-
SOUTHCENTRAL AND SOUTHEAST MONTANA

CITY           SKY/WX    TMP DP  RH WIND       PRES   REMARKS
BAKER          CLOUDY    32  14  47 W13G20    30.36F WCI  22
BILLINGS       CLOUDY    42  19  39 SW14      30.40F
LIVINGSTON     CLOUDY    53  26  35 SW29G35   30.48F
MILES CITY     CLOUDY    37  16  42 SW8       30.38F WCI  31
EKALAKA          N/A     33   7  34 W10       30.28  WCI  25
FORSYTH          N/A     36  16  44 W6        30.40F WCI  31
LAUREL           N/A     41  17  38 S13       30.35F
ROUNDUP          N/A     51  23  33 SW16      30.26F
$$

REGIONAL REPORTS...DAKOTAS

CITY           SKY/WX    TMP DP  RH WIND       PRES   REMARKS
WILLISTON      CLOUDY    32  18  56 NW13      30.36R WCI  22
MINOT          MOSUNNY   30   9  41 NW21G29   30.28S WCI  17
DICKINSON      SUNNY     31  14  49 NW21G29   30.27F WCI  18
BEACH          CLOUDY    32  14  47 NW13      30.37S WCI  22
CROSBY           N/A     27  21  80 NW14      30.38R WCI  15
TIOGA            N/A     25  21  86 NW13      30.38R WCI  13
WATFORD CITY     N/A     30  18  59 NW14      30.35R WCI  20
BISMARCK       CLOUDY    33  17  51 NW22G31   30.27F WCI  21
GRAND FORKS    SNOW      14   8  77 N23       30.20S VSB 1/2 WCI  -5
FARGO          LGT SNOW  16   9  74 N25G36    30.18S WCI  -3
BUFFALO SD       N/A     34  10  37 NW21      30.27F WCI  22
RAPID CITY     MOSUNNY   40   5  23 NW32G43   30.32F
$$

REGIONAL REPORTS...WYOMING/IDAHO/WASHINGTON

CITY           SKY/WX    TMP DP  RH WIND       PRES   REMARKS
GILLETTE       CLOUDY    35  16  45 W14       30.37F WCI  26
SHERIDAN       MOSUNNY   46  23  39 N12       30.38F
BUFFALO WY     MOSUNNY   40  24  53 N15G24    30.38F
CODY           SUNNY     43  21  42 E5        30.44F
YELLOWSTONE LA   N/A     24  14  65 CALM      30.63F
IDAHO FALLS    CLOUDY    24  22  91 N7        30.73F FOG     WCI  16
SALMON         CLOUDY    27  19  74 CALM      30.74S
BOISE          SUNNY     39  32  76 S13       30.72R WCI  31
SPOKANE        PTSUNNY   37  30  75 NE7       30.62R WCI  32
$$

REGIONAL REPORTS...ALBERTA

CITY           SKY/WX    TMP DP  RH WIND       PRES   REMARKS
EDMONTON       PTSUNNY   34  21  60 SW8       30.26S WCI  27
CALGARY        PTSUNNY   52  25  35 W14G22    30.29S
LETHBRIDGE     PTSUNNY   54  28  37 W25G35    30.34R
MEDICINE HAT   PTSUNNY   43  30  61 S6        30.33R
WATERTON GATE    N/A     46  27  46 SW28G39     N/A
ONEFOUR          N/A     37  27  65 W5          N/A
$$

REGIONAL REPORTS...SASKATCHEWAN

CITY           SKY/WX    TMP DP  RH WIND       PRES   REMARKS
SWIFT CURRENT  CLOUDY    34  18  51 SW7       30.29F WCI  28
REGINA         CLOUDY    23  19  86 W5        30.33F
SASKATOON      CLOUDY    23  16  74 SW6       30.34S WCI  16
CYPRESS HILLS    N/A     43  19  39 NW8         N/A
VAL MARIE        N/A     34  19  55 S6          N/A  WCI  29
ROCKGLEN         N/A     30  18  59 W6          N/A  WCI  24
ASSINIBOIA       N/A     32  25  74 W13         N/A  WCI  22
$$



USA.gov is the U.S. government's official web portal to all federal, state and local government web resources and services.